Regional Weather Roundup
Issued by NWS Lake Charles, LA

Home | Current Version | Previous Version | Text Only | Print | Product List | Glossary On
Versions: 1 2 3 4 5 6 7 8 9 10 11 12 13 14 15 16 17 18 19 20 21 22 23 24 25 26 27
000
ASUS44 KLCH 211510
RWRLCH
REGIONAL WEATHER ROUNDUP
NATIONAL WEATHER SERVICE LAKE CHARLES LA
900 AM CST SAT JAN 21 2017

Note: "fair" indicates few or no clouds below 12,000 feet with no
significant weather and/or obstructions to visibility.


ACROSS SOUTHEAST TEXAS

CITY           SKY/WX    TMP DP  RH WIND       PRES   REMARKS
BEAUMONT       FOG       70  68  93 S5        29.65R VSB 1
BEAUMONT CITY  CLOUDY    68  67  94 S3        29.66S FOG
ORANGE         CLOUDY    67  65  93 SE3       29.68R FOG
JASPER         CLOUDY    60  60  98 E3        29.68S
$$

ACROSS CENTRAL LOUISIANA

CITY           SKY/WX    TMP DP  RH WIND       PRES   REMARKS
LEESVILLE      CLOUDY    61  59  94 SE7       29.67F
FULLERTON      FAIR      61  58  90 VRB3      29.65F
ALEXANDRIA INT CLOUDY    59  58  96 SE8       29.67F
ESLER FIELD    MOSUNNY   61  60  97 CALM      29.69R
DERIDDER       FAIR      60  59  96 CALM      29.69S
OAKDALE        CLOUDY    62  59  92 CALM      29.69F
OPELOUSAS      PTSUNNY   63  59  87 E9G16     29.71S
$$

ACROSS SOUTHWEST AND SOUTH CENTRAL LOUISIANA

CITY           SKY/WX    TMP DP  RH WIND       PRES   REMARKS
SULPHUR        CLOUDY    66  62  89 E6        29.68R
LAKE CHARLES   CLOUDY    65  62  90 E6        29.67S
CHENNAULT INT  NOT AVBL
CAMERON PHI    CLOUDY    66  64  94 SE7       29.66R
DEQUINCY       PTSUNNY   60  59  97 E3        29.67S
JENNINGS       CLOUDY    64  61  88 E9        29.96F
LAFAYETTE      CLOUDY    66  62  87 VRB3      29.72R
NEW IBERIA     PTSUNNY   65  59  81 E8        29.72R
ABBEVILLE      CLOUDY    64  64 100 E6        29.71S
PATTERSON      CLOUDY    65  63  93 E8        29.73R
SALT POINT     NOT AVBL
$$

SELECTED SITES ACROSS THE REGION

CITY           SKY/WX    TMP DP  RH WIND       PRES   REMARKS
HOUSTON BUSH   FOG       66  65  96 S6        29.63F VSB 1
HOUSTON HOBBY  CLOUDY    68  65  90 S3        29.63F FOG
GALVESTON      FOG       69  68  96 S3        29.64F VSB 1/4
COLLEGE STAT   CLOUDY    63  63 100 SE7       29.60F FOG
CONROE         FOG       64  63  96 SE5       29.63F VSB 1/2
HUNTSVILLE     CLOUDY    63  62  97 W5        29.63F FOG
LUFKIN         CLOUDY    59  59 100 S8        29.65R FOG
SHREVEPORT     PTSUNNY   58  57  97 S8        29.63R
MONROE         SUNNY     60  57  89 S7        29.69R
NATCHEZ MS     PTSUNNY   63  55  77 S7        29.70R
BATON ROUGE    PTSUNNY   63  58  83 E8        29.73R
N.O. INTL ARPT MOSUNNY   63  58  83 E10       29.74R
SLIDELL        CLOUDY    61  60  97 W3        29.76S
$$

MARINE REPORTS

STATION/POSITION TIME  SKY/WX   TEMP    WIND        PRES    VSBY
                                AIR SEA DIR/SP/G
                 (UTC)          (F)     (DEG/KT/KT) (MB)    (MI)
BUOY 30 S HIGH I 1450            69 67  220/  4/  6 1003.9S
WVE H/P(F/S)=  3/ 6

SEA RIM ST PARK  1400            67     160/  3/  4 1004.7R
PORT ARTHUR      1448                   140/  3/  5   N/A
SABINE PASS N    1448                   140/  6/  6   N/A
TEXAS POINT      NOT AVBL
CALCASIEU PASS   1448                   130/  6/  7   N/A
LK CHARLES BEACH 1448            64                 1005.0F
MARSH ISLAND     NOT AVBL
FRESH WATER LOCK 1448                    60/  6/  8   N/A
AMERADA PASS     1448            70 54  160/  3/  6 1006.0R
$$




USA.gov is the U.S. government's official web portal to all federal, state and local government web resources and services.